BOX116 EDDP-EBBR

Flight info

Callsign BOX116
Flight time 1h 17m
Altitude 36000
Route ORTAG5Q/08L ORTAG Q230 KUMER DCT WRB DCT ABAMI Z717 NEREL/N0423F240 T855 AGENI/N0388F180 T855 BATTY
Aircraft B77L/H-SDE1E2E3FGHIJ2J3J4J5M1RWXY/LB1D1

Departure

Time 2026-05-06 20:57
Airport Leipzig/Halle Airport (EDDP)

Arrival

Time 2026-05-06 22:15
Airport Brussels Airport (EBBR)
Time Latitude Longitude Altitude Speed Heading
2026-05-06 20:21 51.40834 12.24342 469 ft 0 kts 85°
2026-05-06 20:45 51.40832 12.24320 467 ft 4 kts 73°
2026-05-06 20:45 51.40821 12.24284 465 ft 4 kts 44°
2026-05-06 20:46 51.40799 12.24259 465 ft 4 kts 23°
2026-05-06 20:46 51.40774 12.24247 464 ft 4 kts
2026-05-06 20:46 51.40765 12.24247 466 ft 2 kts 355°
2026-05-06 20:47 51.40765 12.24246 466 ft 0 kts 355°
2026-05-06 20:50 51.40767 12.24246 466 ft 4 kts 355°
2026-05-06 20:50 51.40905 12.24230 469 ft 35 kts 356°
2026-05-06 20:50 51.41070 12.24176 466 ft 21 kts 304°
2026-05-06 20:50 51.41063 12.23943 470 ft 21 kts 264°
2026-05-06 20:51 51.41052 12.23707 475 ft 21 kts 266°
2026-05-06 20:51 51.41043 12.23472 471 ft 21 kts 265°
2026-05-06 20:51 51.41032 12.23238 469 ft 21 kts 265°
2026-05-06 20:51 51.41020 12.22998 469 ft 23 kts 265°
2026-05-06 20:52 51.41008 12.22740 467 ft 23 kts 266°
2026-05-06 20:52 51.40996 12.22480 462 ft 23 kts 266°
2026-05-06 20:52 51.41067 12.22272 461 ft 23 kts 310°
2026-05-06 20:52 51.41060 12.22018 461 ft 23 kts 265°
2026-05-06 20:53 51.41049 12.21757 463 ft 23 kts 266°
2026-05-06 20:53 51.41039 12.21496 458 ft 23 kts 266°
2026-05-06 20:53 51.41027 12.21234 455 ft 25 kts 266°
2026-05-06 20:53 51.41012 12.20920 444 ft 31 kts 265°
2026-05-06 20:54 51.40997 12.20597 432 ft 18 kts 265°
2026-05-06 20:54 51.41043 12.20488 430 ft 0 kts
2026-05-06 20:55 51.41044 12.20488 457 ft 1 kts
2026-05-06 20:55 51.41062 12.20493 440 ft 3 kts
2026-05-06 20:55 51.41082 12.20498 438 ft 4 kts 11°
2026-05-06 20:56 51.41148 12.20542 430 ft 18 kts 41°
2026-05-06 20:56 51.41181 12.20840 437 ft 37 kts 85°
2026-05-06 20:56 51.41211 12.21462 457 ft 87 kts 85°
2026-05-06 20:56 51.41271 12.22778 466 ft 147 kts 86°
2026-05-06 20:57 51.41343 12.24534 811 ft 158 kts 85°
2026-05-06 20:57 51.41394 12.26305 1363 ft 163 kts 85°
2026-05-06 20:57 51.41428 12.28103 2059 ft 161 kts 89°
2026-05-06 20:57 51.41505 12.29944 2494 ft 172 kts 79°
2026-05-06 20:58 51.41708 12.31932 2781 ft 192 kts 84°
2026-05-06 20:58 51.41852 12.34201 3011 ft 220 kts 85°
2026-05-06 20:58 51.42002 12.36811 3232 ft 250 kts 85°
2026-05-06 20:58 51.42442 12.39561 3829 ft 263 kts 60°
2026-05-06 20:59 51.43697 12.41737 4549 ft 272 kts 27°
2026-05-06 20:59 51.45483 12.42575 5386 ft 270 kts 359°
2026-05-06 20:59 51.47345 12.42197 6192 ft 269 kts 342°
2026-05-06 20:59 51.49182 12.41390 6849 ft 278 kts 342°
2026-05-06 21:00 51.51055 12.40562 7712 ft 280 kts 341°
2026-05-06 21:00 51.52923 12.39741 8548 ft 284 kts 341°
2026-05-06 21:00 51.54841 12.38876 9345 ft 287 kts 336°
2026-05-06 21:00 51.56514 12.37201 10029 ft 286 kts 308°
2026-05-06 21:01 51.57546 12.34426 10346 ft 299 kts 287°
2026-05-06 21:01 51.58217 12.31143 10505 ft 321 kts 285°
2026-05-06 21:01 51.58950 12.27591 10722 ft 348 kts 286°
2026-05-06 21:01 51.59752 12.23801 11247 ft 364 kts 287°
2026-05-06 21:02 51.60366 12.21279 11614 ft 368 kts 295°
2026-05-06 21:02 51.61963 12.17978 12296 ft 382 kts 316°
2026-05-06 21:02 51.64169 12.15543 13374 ft 386 kts 326°
2026-05-06 21:02 51.66480 12.13279 14236 ft 393 kts 325°
2026-05-06 21:03 51.68650 12.10624 14904 ft 395 kts 309°
2026-05-06 21:03 51.70050 12.06861 15695 ft 392 kts 287°
2026-05-06 21:03 51.70627 12.02579 16551 ft 392 kts 270°
2026-05-06 21:03 51.70538 11.98216 17222 ft 391 kts 263°
2026-05-06 21:04 51.70286 11.93806 17889 ft 399 kts 262°
2026-05-06 21:04 51.70010 11.89341 18673 ft 402 kts 262°
2026-05-06 21:04 51.69738 11.84827 19480 ft 405 kts 262°
2026-05-06 21:04 51.69481 11.80294 20214 ft 409 kts 262°
2026-05-06 21:05 51.69233 11.75696 20893 ft 414 kts 262°
2026-05-06 21:05 51.68991 11.71025 21511 ft 421 kts 262°
2026-05-06 21:05 51.68751 11.66303 22252 ft 424 kts 262°
2026-05-06 21:05 51.68515 11.61620 23060 ft 426 kts 262°
2026-05-06 21:06 51.68272 11.56841 23685 ft 430 kts 262°
2026-05-06 21:06 51.68025 11.52016 24257 ft 434 kts 262°
2026-05-06 21:06 51.67779 11.47157 24859 ft 437 kts 262°
2026-05-06 21:06 51.67527 11.42265 25449 ft 440 kts 262°
2026-05-06 21:07 51.67263 11.37339 26039 ft 442 kts 262°
2026-05-06 21:07 51.66853 11.32422 26623 ft 442 kts 252°
2026-05-06 21:07 51.65627 11.27912 27168 ft 441 kts 235°
2026-05-06 21:07 51.63694 11.24071 27674 ft 443 kts 222°
2026-05-06 21:08 51.61255 11.21086 28109 ft 439 kts 211°
2026-05-06 21:08 51.58620 11.18489 28288 ft 448 kts 211°
2026-05-06 21:08 51.55976 11.15786 28721 ft 451 kts 212°
2026-05-06 21:08 51.53495 11.12775 29040 ft 449 kts 224°
2026-05-06 21:09 51.51611 11.08711 29258 ft 460 kts 240°
2026-05-06 21:09 51.50465 11.03886 29694 ft 466 kts 252°
2026-05-06 21:09 51.49913 10.98825 30319 ft 466 kts 262°
2026-05-06 21:09 51.50091 10.93654 30829 ft 467 kts 276°
2026-05-06 21:10 51.50738 10.88547 31472 ft 465 kts 277°
2026-05-06 21:10 51.51418 10.83505 32131 ft 460 kts 277°
2026-05-06 21:10 51.52064 10.78487 32730 ft 457 kts 276°
2026-05-06 21:10 51.52656 10.73479 33267 ft 455 kts 275°
2026-05-06 21:11 51.53218 10.68486 33783 ft 453 kts 274°
2026-05-06 21:11 51.53639 10.63500 34196 ft 450 kts 270°
2026-05-06 21:11 51.53776 10.58463 34245 ft 453 kts 264°
2026-05-06 21:12 51.53549 10.48279 34610 ft 457 kts 263°
2026-05-06 21:12 51.53434 10.43184 35027 ft 456 kts 264°
2026-05-06 21:12 51.53328 10.38101 35378 ft 456 kts 264°
2026-05-06 21:12 51.53230 10.33007 35665 ft 456 kts 264°
2026-05-06 21:13 51.53136 10.27894 35748 ft 462 kts 264°
2026-05-06 21:13 51.52953 10.17573 35805 ft 461 kts 264°
2026-05-06 21:14 51.52767 10.07339 35820 ft 458 kts 264°
2026-05-06 21:14 51.52566 9.97102 35830 ft 460 kts 264°
2026-05-06 21:15 51.52357 9.86829 35827 ft 461 kts 264°
2026-05-06 21:15 51.52139 9.76567 35837 ft 462 kts 264°
2026-05-06 21:16 51.51912 9.66252 35827 ft 463 kts 264°
2026-05-06 21:16 51.51677 9.55915 35830 ft 463 kts 264°
2026-05-06 21:17 51.51434 9.45582 35832 ft 463 kts 264°
2026-05-06 21:17 51.51183 9.35243 35834 ft 463 kts 264°
2026-05-06 21:18 51.50930 9.24912 35835 ft 462 kts 264°
2026-05-06 21:18 51.50669 9.14605 35840 ft 462 kts 264°
2026-05-06 21:19 51.50348 9.04332 35860 ft 460 kts 263°
2026-05-06 21:19 51.49919 8.94088 35859 ft 460 kts 263°
2026-05-06 21:20 51.49493 8.83826 35873 ft 460 kts 263°
2026-05-06 21:20 51.49086 8.73647 35878 ft 460 kts 263°
2026-05-06 21:21 51.48678 8.63400 35886 ft 461 kts 263°
2026-05-06 21:21 51.48259 8.53132 35882 ft 462 kts 263°
2026-05-06 21:22 51.47832 8.42843 35864 ft 462 kts 263°
2026-05-06 21:22 51.47393 8.32534 35872 ft 463 kts 263°
2026-05-06 21:23 51.46945 8.22236 35878 ft 463 kts 263°
2026-05-06 21:23 51.46488 8.11921 35879 ft 464 kts 263°
2026-05-06 21:24 51.46022 8.01590 35877 ft 464 kts 263°
2026-05-06 21:24 51.45547 7.91250 35880 ft 465 kts 263°
2026-05-06 21:25 51.45065 7.80911 35890 ft 465 kts 263°
2026-05-06 21:25 51.44573 7.70566 35875 ft 465 kts 262°
2026-05-06 21:26 51.44075 7.60223 35888 ft 466 kts 263°
2026-05-06 21:26 51.43575 7.49863 35892 ft 466 kts 263°
2026-05-06 21:27 51.43058 7.39526 35894 ft 466 kts 262°
2026-05-06 21:27 51.41916 7.29387 35890 ft 462 kts 247°
2026-05-06 21:28 51.38996 7.20283 35892 ft 457 kts 232°
2026-05-06 21:28 51.35126 7.12196 35898 ft 462 kts 230°
2026-05-06 21:29 51.31203 7.04021 35904 ft 467 kts 231°
2026-05-06 21:29 51.27295 6.95712 35912 ft 468 kts 231°
2026-05-06 21:30 51.23400 6.87385 35912 ft 468 kts 231°
2026-05-06 21:30 51.19500 6.79068 35910 ft 467 kts 231°
2026-05-06 21:31 51.15615 6.70799 35908 ft 465 kts 231°
2026-05-06 21:31 51.11738 6.62569 35908 ft 464 kts 231°
2026-05-06 21:32 51.07735 6.54545 35950 ft 463 kts 225°
2026-05-06 21:32 51.00874 6.43876 35921 ft 461 kts 223°
2026-05-06 21:33 50.98571 6.40310 35625 ft 466 kts 223°
2026-05-06 21:33 50.96237 6.36663 34846 ft 472 kts 223°
2026-05-06 21:33 50.93907 6.32997 34047 ft 472 kts 223°
2026-05-06 21:33 50.91576 6.29319 33208 ft 471 kts 223°
2026-05-06 21:34 50.89272 6.25687 32653 ft 464 kts 223°
2026-05-06 21:34 50.86994 6.22109 32083 ft 458 kts 223°
2026-05-06 21:34 50.84742 6.18579 31537 ft 453 kts 223°
2026-05-06 21:34 50.82518 6.15095 31005 ft 447 kts 223°
2026-05-06 21:35 50.80321 6.11651 30482 ft 443 kts 223°
2026-05-06 21:35 50.78140 6.08247 29967 ft 438 kts 223°
2026-05-06 21:35 50.75975 6.04891 29363 ft 433 kts 223°
2026-05-06 21:35 50.73931 6.01490 28812 ft 423 kts 228°
2026-05-06 21:36 50.72034 5.97980 28333 ft 418 kts 228°
2026-05-06 21:36 50.70147 5.94528 27833 ft 413 kts 227°
2026-05-06 21:36 50.68305 5.91098 27298 ft 404 kts 233°
2026-05-06 21:36 50.67073 5.87189 26831 ft 397 kts 253°
2026-05-06 21:37 50.66711 5.82904 26375 ft 397 kts 269°
2026-05-06 21:37 50.67025 5.78624 25909 ft 400 kts 282°
2026-05-06 21:37 50.68066 5.74494 25452 ft 414 kts 295°
2026-05-06 21:37 50.69419 5.70354 24917 ft 422 kts 295°
2026-05-06 21:38 50.70768 5.66254 24397 ft 421 kts 295°
2026-05-06 21:38 50.72091 5.62212 23898 ft 418 kts 295°
2026-05-06 21:38 50.73410 5.58149 23376 ft 415 kts 296°
2026-05-06 21:38 50.74714 5.54107 22811 ft 412 kts 295°
2026-05-06 21:39 50.76006 5.50079 22288 ft 407 kts 295°
2026-05-06 21:39 50.77272 5.46115 21863 ft 401 kts 295°
2026-05-06 21:39 50.78524 5.42186 21180 ft 401 kts 295°
2026-05-06 21:39 50.79762 5.38298 20345 ft 387 kts 295°
2026-05-06 21:40 50.80944 5.34581 19555 ft 371 kts 295°
2026-05-06 21:40 50.82091 5.30963 18802 ft 367 kts 295°
2026-05-06 21:40 50.83260 5.27290 18082 ft 381 kts 296°
2026-05-06 21:40 50.84465 5.23515 17286 ft 387 kts 296°
2026-05-06 21:41 50.85675 5.19697 16475 ft 384 kts 296°
2026-05-06 21:41 50.86830 5.16015 15651 ft 363 kts 295°
2026-05-06 21:41 50.87748 5.12403 14858 ft 346 kts 281°
2026-05-06 21:41 50.87952 5.08657 14099 ft 341 kts 271°
2026-05-06 21:42 50.88042 5.04886 13312 ft 344 kts 272°
2026-05-06 21:42 50.88177 5.01094 12507 ft 345 kts 273°
2026-05-06 21:42 50.88332 4.97311 11711 ft 343 kts 273°
2026-05-06 21:42 50.88492 4.93564 10920 ft 340 kts 274°
2026-05-06 21:43 50.88654 4.89829 10179 ft 338 kts 274°
2026-05-06 21:43 50.88816 4.86134 9395 ft 333 kts 274°
2026-05-06 21:43 50.88972 4.82542 8565 ft 319 kts 274°
2026-05-06 21:43 50.89118 4.79116 7757 ft 306 kts 274°
2026-05-06 21:44 50.89211 4.76923 7235 ft 298 kts 274°
2026-05-06 21:44 50.89348 4.73697 6463 ft 288 kts 274°
2026-05-06 21:44 50.89475 4.70583 5661 ft 280 kts 274°
2026-05-06 21:44 50.89601 4.67552 4871 ft 273 kts 274°
2026-05-06 21:45 50.89727 4.64665 4748 ft 254 kts 273°
2026-05-06 21:45 50.89849 4.61791 4776 ft 265 kts 274°
2026-05-06 21:45 50.89967 4.58916 4767 ft 258 kts 273°
2026-05-06 21:45 50.90075 4.56104 4760 ft 254 kts 273°
2026-05-06 21:46 50.90180 4.53327 4563 ft 253 kts 272°
2026-05-06 21:46 50.90233 4.50559 4183 ft 251 kts 271°
2026-05-06 21:46 50.90260 4.47843 3802 ft 248 kts 271°
2026-05-06 21:46 50.90288 4.45141 3503 ft 241 kts 271°
2026-05-06 21:47 50.90317 4.42532 3515 ft 240 kts 271°
2026-05-06 21:47 50.90356 4.39823 3546 ft 251 kts 271°
2026-05-06 21:47 50.90400 4.37053 3545 ft 251 kts 271°
2026-05-06 21:47 50.90448 4.34272 3552 ft 254 kts 271°
2026-05-06 21:48 50.90494 4.31479 3545 ft 250 kts 271°
2026-05-06 21:48 50.90530 4.28792 3530 ft 238 kts 271°
2026-05-06 21:48 50.90557 4.26196 3490 ft 233 kts 271°
2026-05-06 21:48 50.90584 4.23616 3234 ft 235 kts 271°
2026-05-06 21:49 50.90607 4.21062 3128 ft 229 kts 270°
2026-05-06 21:49 50.90597 4.18437 3112 ft 249 kts 262°
2026-05-06 21:49 50.89864 4.15956 3043 ft 254 kts 220°
2026-05-06 21:49 50.88258 4.14831 3056 ft 260 kts 178°
2026-05-06 21:50 50.86490 4.15368 3041 ft 261 kts 158°
2026-05-06 21:50 50.84756 4.16191 3044 ft 259 kts 159°
2026-05-06 21:50 50.83025 4.16951 3088 ft 257 kts 160°
2026-05-06 21:50 50.81331 4.17659 3028 ft 243 kts 160°
2026-05-06 21:51 50.79753 4.18299 3017 ft 224 kts 161°
2026-05-06 21:51 50.78274 4.18887 3029 ft 217 kts 161°
2026-05-06 21:51 50.76811 4.19464 3034 ft 216 kts 161°
2026-05-06 21:51 50.75356 4.20037 3038 ft 215 kts 161°
2026-05-06 21:52 50.73873 4.20622 3072 ft 224 kts 161°
2026-05-06 21:52 50.72413 4.21197 3024 ft 208 kts 161°
2026-05-06 21:52 50.71048 4.21752 3018 ft 199 kts 160°
2026-05-06 21:52 50.69720 4.22369 3074 ft 199 kts 144°
2026-05-06 21:53 50.68888 4.23941 3039 ft 190 kts 95°
2026-05-06 21:53 50.68911 4.25987 3018 ft 189 kts 71°
2026-05-06 21:53 50.69219 4.28015 2734 ft 189 kts 68°
2026-05-06 21:53 50.69538 4.29968 2455 ft 180 kts 68°
2026-05-06 21:54 50.69849 4.31854 2147 ft 175 kts 68°
2026-05-06 21:54 50.70151 4.33690 2070 ft 165 kts 68°
2026-05-06 21:54 50.70431 4.35381 2040 ft 160 kts 68°
2026-05-06 21:54 50.70711 4.37082 2035 ft 159 kts 68°
2026-05-06 21:55 50.70987 4.38762 2033 ft 158 kts 68°
2026-05-06 21:55 50.71219 4.40453 2045 ft 157 kts 63°
2026-05-06 21:55 50.71895 4.41760 2032 ft 159 kts 26°
2026-05-06 21:55 50.72916 4.42466 2013 ft 161 kts 16°
2026-05-06 21:56 50.73960 4.43032 2031 ft 157 kts 13°
2026-05-06 21:56 50.75007 4.43506 2024 ft 156 kts 11°
2026-05-06 21:56 50.76061 4.43951 2041 ft 159 kts 10°
2026-05-06 21:56 50.77136 4.44398 2047 ft 159 kts 10°
2026-05-06 21:57 50.78197 4.44831 2060 ft 155 kts
2026-05-06 21:57 50.79248 4.45261 2037 ft 156 kts
2026-05-06 21:57 50.80295 4.45688 1958 ft 158 kts 12°
2026-05-06 21:57 50.81358 4.46123 1745 ft 156 kts 12°
2026-05-06 21:58 50.82400 4.46545 1517 ft 153 kts 11°
2026-05-06 21:58 50.83437 4.46969 1321 ft 154 kts 11°
2026-05-06 21:58 50.84474 4.47399 1092 ft 151 kts 11°
2026-05-06 21:58 50.85474 4.47806 912 ft 148 kts 10°
2026-05-06 21:59 50.86485 4.48225 691 ft 150 kts
2026-05-06 21:59 50.87487 4.48617 475 ft 145 kts
2026-05-06 21:59 50.88479 4.48971 321 ft 146 kts 13°
2026-05-06 21:59 50.89435 4.49403 195 ft 148 kts 11°
2026-05-06 22:00 50.90523 4.49815 742 ft 167 kts 11°
2026-05-06 22:00 50.91649 4.50263 1825 ft 165 kts 10°
2026-05-06 22:00 50.92874 4.50694 2167 ft 203 kts 12°
2026-05-06 22:00 50.94282 4.51273 2081 ft 206 kts
2026-05-06 22:01 50.95637 4.51050 2009 ft 188 kts 336°
2026-05-06 22:01 50.96498 4.49558 1992 ft 207 kts 282°
2026-05-06 22:01 50.96742 4.47255 2006 ft 212 kts 291°
2026-05-06 22:01 50.97348 4.45120 2106 ft 218 kts 289°
2026-05-06 22:02 50.97330 4.42774 2058 ft 216 kts 240°
2026-05-06 22:02 50.96407 4.40928 2048 ft 220 kts 221°
2026-05-06 22:02 50.95422 4.39049 2010 ft 222 kts 243°
2026-05-06 22:02 50.94884 4.36785 2118 ft 219 kts 250°
2026-05-06 22:03 50.94382 4.34487 2115 ft 222 kts 249°
2026-05-06 22:03 50.93805 4.32187 2079 ft 226 kts 240°
2026-05-06 22:03 50.92994 4.30093 2034 ft 220 kts 234°
2026-05-06 22:03 50.92150 4.28078 2049 ft 218 kts 233°
2026-05-06 22:04 50.91297 4.26073 2061 ft 221 kts 233°
2026-05-06 22:04 50.90435 4.24048 2117 ft 220 kts 233°
2026-05-06 22:04 50.89517 4.22107 2216 ft 222 kts 218°
2026-05-06 22:04 50.88150 4.21081 2243 ft 220 kts 183°
2026-05-06 22:05 50.86622 4.20827 2238 ft 221 kts 179°
2026-05-06 22:05 50.85098 4.20589 2236 ft 219 kts 179°
2026-05-06 22:05 50.83600 4.20362 2258 ft 219 kts 176°
2026-05-06 22:05 50.82079 4.20339 2224 ft 219 kts 177°
2026-05-06 22:06 50.80564 4.20143 2261 ft 218 kts 179°
2026-05-06 22:06 50.79056 4.19936 2257 ft 217 kts 180°
2026-05-06 22:06 50.77555 4.19767 2259 ft 216 kts 179°
2026-05-06 22:06 50.76070 4.20021 2241 ft 216 kts 149°
2026-05-06 22:07 50.75006 4.21509 2274 ft 199 kts 115°
2026-05-06 22:07 50.74337 4.23356 2216 ft 189 kts 112°
2026-05-06 22:07 50.73688 4.25126 2231 ft 185 kts 112°
2026-05-06 22:07 50.73041 4.26885 2242 ft 187 kts 112°
2026-05-06 22:08 50.72385 4.28657 2239 ft 185 kts 112°
2026-05-06 22:08 50.71748 4.30357 2225 ft 176 kts 111°
2026-05-06 22:08 50.71191 4.32047 2228 ft 173 kts 107°
2026-05-06 22:08 50.70679 4.33772 2257 ft 175 kts 106°
2026-05-06 22:09 50.70163 4.35520 2243 ft 177 kts 107°
2026-05-06 22:09 50.69817 4.37357 2256 ft 174 kts 78°
2026-05-06 22:09 50.70213 4.39059 2233 ft 168 kts 53°
2026-05-06 22:09 50.70805 4.40675 2270 ft 167 kts 44°
2026-05-06 22:10 50.71756 4.41606 2234 ft 165 kts 14°
2026-05-06 22:10 50.72835 4.42226 2238 ft 164 kts 15°
2026-05-06 22:10 50.73893 4.42857 2244 ft 159 kts 15°
2026-05-06 22:10 50.74929 4.43422 2244 ft 156 kts 12°
2026-05-06 22:11 50.75959 4.43888 2247 ft 154 kts 10°
2026-05-06 22:11 50.77004 4.44331 2266 ft 156 kts
2026-05-06 22:11 50.78057 4.44768 2252 ft 157 kts
2026-05-06 22:11 50.79116 4.45203 2225 ft 158 kts
2026-05-06 22:12 50.80176 4.45638 1992 ft 154 kts 12°
2026-05-06 22:12 50.81194 4.46051 1784 ft 150 kts 12°
2026-05-06 22:12 50.82191 4.46461 1594 ft 146 kts 12°
2026-05-06 22:12 50.83171 4.46862 1384 ft 144 kts 11°
2026-05-06 22:13 50.84147 4.47263 1190 ft 147 kts 11°
2026-05-06 22:13 50.85141 4.47673 975 ft 149 kts 10°
2026-05-06 22:13 50.86146 4.48085 770 ft 150 kts
2026-05-06 22:13 50.87165 4.48428 569 ft 150 kts
2026-05-06 22:14 50.88183 4.48838 364 ft 150 kts
2026-05-06 22:14 50.89192 4.49328 212 ft 149 kts 11°
2026-05-06 22:14 50.90084 4.49711 136 ft 110 kts 11°
2026-05-06 22:14 50.90642 4.49943 126 ft 56 kts 12°
2026-05-06 22:15 50.90908 4.50042 120 ft 32 kts 16°
2026-05-06 22:15 50.91068 4.50051 121 ft 12 kts 282°
2026-05-06 22:15 50.91027 4.49933 122 ft 13 kts 229°
2026-05-06 22:15 50.90962 4.49843 123 ft 13 kts 223°
2026-05-06 22:16 50.90914 4.49727 125 ft 13 kts 247°
2026-05-06 22:16 50.90877 4.49599 124 ft 13 kts 242°
2026-05-06 22:16 50.90836 4.49472 125 ft 13 kts 243°
2026-05-06 22:16 50.90791 4.49319 122 ft 24 kts 245°
2026-05-06 22:17 50.90685 4.48943 120 ft 50 kts 246°
2026-05-06 22:17 50.90525 4.48382 123 ft 56 kts 245°
2026-05-06 22:17 50.90367 4.47858 123 ft 38 kts 242°
2026-05-06 22:17 50.90260 4.47481 122 ft 37 kts 246°
2026-05-06 22:18 50.90184 4.47209 125 ft 17 kts 246°
2026-05-06 22:18 50.90175 4.47109 129 ft 9 kts 287°
2026-05-06 22:18 50.90197 4.47037 129 ft 7 kts 295°
2026-05-06 22:18 50.90219 4.46961 127 ft 11 kts 295°
2026-05-06 22:19 50.90292 4.46720 129 ft 37 kts 296°
2026-05-06 22:19 50.90352 4.46375 137 ft 26 kts 254°
2026-05-06 22:19 50.90294 4.46170 139 ft 10 kts 245°
2026-05-06 22:19 50.90326 4.46100 140 ft 9 kts 336°
2026-05-06 22:20 50.90352 4.46084 140 ft 2 kts 338°
2026-05-06 22:20 50.90364 4.46076 140 ft 1 kts 336°
2026-05-06 22:20 50.90371 4.46071 140 ft 0 kts 336°